Date,TemperatureHighF,TemperatureAvgF,TemperatureLowF,DewpointHighF,DewpointAvgF,DewpointLowF,HumidityHigh,HumidityAvg,HumidityLow,PressureMaxIn,PressureMinIn,WindSpeedMaxMPH,WindSpeedAvgMPH,GustSpeedMaxMPH,PrecipitationSumIn
2012-1-4,36,36,36,22,22,22,56,56,56,30.16,30.16,0,0,0,0.00
2012-1-11,24,24,23,20,20,19,86,85,84,29.93,29.90,7,4,7,0.00
2012-1-15,50,50,50,25,25,25,37,37,37,29.80,29.80,6,6,6,0.00
2012-1-18,35,35,35,18,18,17,49,49,48,29.87,29.87,9,8,9,0.00
2012-1-21,29,26,25,20,18,16,81,71,58,29.97,29.73,11,2,11,0.00
2012-1-22,56,40,25,43,35,20,91,81,59,29.73,29.35,22,9,22,0.00
2012-1-23,25,23,21,20,19,18,88,85,80,30.04,30.00,0,0,0,0.00
2012-1-24,28,20,18,25,17,15,92,89,88,30.21,30.04,1,0,1,0.00
2012-1-25,34,33,33,27,26,26,76,76,75,29.94,29.93,0,0,0,0.00
2012-1-30,43,43,43,31,31,31,63,62,62,29.93,29.93,7,6,7,0.00
2012-2-2,51,50,49,29,29,29,45,44,43,30.16,30.15,1,0,1,0.00
2012-2-3,50,49,46,36,30,28,68,49,42,30.16,30.11,1,0,1,0.04
2012-2-5,42,35,29,34,31,27,92,84,74,30.39,30.32,4,2,4,0.07
2012-2-20,41,39,39,37,37,36,92,90,87,29.68,29.59,4,2,4,0.00
2012-2-23,41,38,36,30,29,27,73,70,64,29.75,29.60,14,6,14,0.00
2012-2-24,35,34,32,29,28,26,84,79,71,29.93,29.74,14,4,14,0.00
2012-3-4,52,47,42,31,26,23,46,43,41,30.11,29.95,7,4,7,0.00
2012-3-7,67,56,42,53,45,30,72,66,60,30.04,29.70,28,12,28,0.00
2012-3-8,52,42,32,31,23,13,84,53,22,30.39,30.03,11,3,11,0.04
2012-3-12,53,49,46,45,44,42,86,81,74,29.95,29.88,0,0,0,0.24
2012-3-13,46,45,44,43,42,41,90,89,87,29.96,29.95,0,0,0,0.23
2012-3-14,82,76,69,63,60,57,76,60,45,29.95,29.82,11,6,11,0.00
2012-3-15,68,65,62,61,59,58,87,82,77,29.96,29.94,9,3,9,0.00
2012-3-18,71,70,68,61,60,58,75,70,68,29.81,29.78,14,8,14,0.00
2012-3-19,59,58,57,57,56,55,95,94,92,29.73,29.67,7,2,7,0.10
2012-3-20,58,57,56,56,53,-100,95,92,84,29.82,29.66,10,1,10,0.50
2012-4-5,52,52,52,40,40,40,63,63,63,30.00,30.00,0,0,0,0.00
2012-4-14,73,71,71,64,60,-100,79,73,70,29.61,29.50,28,9,28,0.01
2012-4-15,73,71,63,63,62,59,87,74,69,29.51,29.45,28,12,28,0.32
2012-4-30,61,60,59,57,56,55,91,88,84,29.88,29.85,0,0,0,0.01
2012-5-1,70,62,57,62,59,55,96,91,76,29.85,29.72,10,2,10,0.14
2012-5-2,81,77,75,69,68,66,77,73,66,29.78,29.70,11,3,11,0.00
2012-5-3,84,74,63,71,66,61,94,79,62,29.88,29.73,13,2,13,0.29
2012-5-4,76,73,67,71,68,62,90,85,78,29.85,29.75,11,2,11,0.02
2012-5-5,68,68,68,67,67,67,96,96,96,29.80,29.80,0,0,0,0.00
2012-5-17,75,74,73,56,55,55,54,53,50,29.86,29.85,0,0,0,0.00
2012-5-19,85,82,78,56,54,52,44,38,34,29.82,29.77,19,9,19,0.00
2012-5-23,89,89,89,60,59,59,38,37,37,29.47,29.47,15,11,15,0.00
2012-5-28,80,80,80,44,44,44,28,28,28,29.78,29.78,0,0,0,0.00
2012-6-7,85,77,64,55,52,48,71,43,29,30.11,30.02,6,1,6,0.00
2012-6-8,78,63,56,56,53,50,90,73,39,30.07,30.04,10,1,10,0.00
2012-6-11,76,71,64,69,67,63,96,86,78,29.92,29.87,0,0,0,0.00
2012-6-25,90,84,78,75,70,67,70,64,58,29.91,29.87,2,0,2,0.00
2012-6-26,77,73,69,67,58,52,71,60,49,29.91,29.88,0,0,0,0.00
2012-6-28,102,91,82,70,67,63,64,47,30,29.88,29.84,4,0,4,0.00
2012-6-29,99,88,78,66,63,58,62,45,27,29.89,29.72,11,3,11,0.00
2012-6-30,100,90,72,73,67,62,81,49,30,29.94,29.75,6,2,6,0.06
2012-7-1,97,83,70,74,66,59,87,59,29,29.96,29.81,14,2,14,0.09
2012-7-2,85,77,73,70,66,64,79,70,59,29.98,29.90,9,1,9,0.00
2012-7-4,99,94,83,66,61,57,54,35,25,29.90,29.80,19,6,19,0.00
2012-7-5,89,81,75,66,63,61,67,53,44,29.97,29.87,7,2,7,0.00
2012-7-7,100,89,80,76,69,61,74,54,28,29.99,29.92,10,1,10,0.00
2012-7-8,93,78,72,73,70,66,92,77,51,30.06,29.95,1,0,1,0.03
2012-7-9,86,77,69,70,67,62,92,72,46,30.08,29.98,1,0,1,0.01
2012-7-10,90,77,66,66,61,52,93,62,29,30.08,29.99,0,0,0,0.01
2012-7-11,69,65,63,64,60,59,92,85,75,30.05,30.02,0,0,0,0.00
2012-7-12,85,82,76,76,69,66,91,67,54,29.97,29.92,0,0,0,0.00
2012-7-14,97,87,71,67,62,57,82,46,27,30.01,29.92,0,0,0,0.00
2012-7-15,98,84,70,68,62,55,85,53,25,30.04,29.93,10,0,10,0.00
2012-7-16,95,82,69,69,65,61,82,58,34,29.98,29.81,14,3,14,0.00
2012-7-17,95,84,77,67,65,63,69,55,36,29.87,29.84,13,3,13,0.00
2012-7-18,104,95,74,73,63,58,93,41,22,29.87,29.81,14,5,14,0.28
2012-7-19,94,81,72,73,67,64,93,65,43,29.98,29.86,12,1,12,0.31
2012-7-22,85,84,83,59,58,57,45,42,40,29.98,29.96,0,0,0,0.00
2012-7-23,83,82,79,59,59,58,51,46,42,29.98,29.97,0,0,0,0.00
2012-7-24,100,99,98,62,60,58,30,27,26,29.90,29.79,18,7,18,0.00
2012-7-31,86,79,76,69,68,66,77,69,57,29.92,29.88,0,0,0,0.00
2012-8-1,83,76,73,69,66,64,84,72,56,29.93,29.89,0,0,0,0.00
2012-8-4,87,86,85,70,69,69,59,57,56,29.89,29.89,1,0,1,0.00
2012-8-5,89,86,79,61,56,52,54,36,30,30.19,30.11,1,0,1,0.00
2012-8-8,98,81,67,63,61,58,84,54,27,29.96,29.80,12,1,12,0.32
2012-8-9,72,72,72,61,61,61,69,69,69,29.91,29.91,0,0,0,0.00
2012-8-12,83,77,71,62,61,59,68,58,46,29.90,29.82,0,0,0,0.00
2012-8-13,70,66,64,62,59,58,83,79,69,30.02,29.89,0,0,0,0.00
2012-8-31,71,70,69,69,68,67,94,93,91,29.90,29.87,3,0,3,0.13
2012-9-1,71,71,70,69,69,68,94,93,93,29.87,29.84,0,0,0,0.36
2012-9-3,87,87,87,68,68,68,54,54,54,29.84,29.84,0,0,0,0.00
2012-9-4,81,80,79,73,72,72,80,79,77,29.78,29.77,0,0,0,0.00
2012-9-10,70,70,70,54,54,54,57,57,57,29.99,29.99,2,2,2,0.00
2012-9-21,79,79,78,36,35,34,21,21,20,29.83,29.82,2,1,2,0.00
2012-9-25,67,67,67,62,62,62,84,84,84,29.79,29.79,0,0,0,0.00
2012-9-26,68,65,61,63,61,55,92,88,82,30.10,30.03,0,0,0,0.00
2012-9-27,76,63,53,57,51,48,88,69,38,30.16,30.07,2,0,2,0.00
2012-9-28,74,58,48,58,51,46,96,81,38,30.18,30.10,0,0,0,0.01
2012-10-3,74,70,66,42,41,41,41,36,30,29.88,29.85,5,1,5,0.00
2012-10-5,35,34,34,32,31,31,89,88,87,30.28,30.27,0,0,0,0.00
2012-10-6,47,40,32,32,28,25,88,64,43,30.36,30.27,5,0,5,0.00
2012-10-7,37,34,32,29,28,26,79,77,73,30.31,30.30,0,0,0,0.00
2012-10-8,60,56,54,36,35,34,50,44,37,29.93,29.88,9,4,9,0.00
2012-10-9,65,53,38,43,37,27,70,54,39,30.10,29.87,9,2,9,0.00
2012-10-10,46,34,30,32,27,25,85,76,55,30.26,30.09,1,0,1,0.00
2012-10-17,63,57,50,36,29,19,46,34,22,29.64,29.51,6,1,6,0.00
2012-10-18,51,48,47,29,26,24,45,42,38,29.64,29.59,6,1,6,0.00
2012-10-28,42,37,35,31,29,27,77,72,66,30.25,30.22,0,0,0,0.00
2012-10-29,57,47,41,32,28,25,66,50,31,30.28,30.09,13,2,13,0.00
2012-10-30,43,42,42,31,31,31,65,64,62,30.10,30.09,0,0,0,0.00
2012-10-31,48,42,38,33,32,31,77,69,56,30.01,29.98,0,0,0,0.00
2012-11-1,71,51,37,43,38,32,86,63,33,29.98,29.88,9,1,9,0.00
2012-11-2,46,44,43,40,37,34,83,75,69,29.97,29.95,3,0,3,0.00
2012-11-10,73,71,69,58,55,52,62,57,51,29.73,29.62,26,17,26,0.00
2012-11-11,68,39,26,56,34,19,93,83,58,30.20,29.65,18,2,18,1.54
2012-11-12,46,32,23,23,20,17,79,64,31,30.38,30.20,7,1,7,0.00
2012-11-13,56,38,22,34,27,19,92,67,35,30.40,30.26,10,1,10,0.01
2012-11-14,57,44,30,31,27,-100,86,56,27,30.37,30.22,18,2,18,0.01
2012-11-15,56,44,35,36,32,27,86,63,44,30.37,30.21,4,0,4,0.00
2012-11-16,40,34,30,34,30,28,92,88,78,30.41,30.33,1,0,1,0.00
2012-11-17,61,45,33,39,32,27,94,64,28,30.35,30.21,18,4,18,0.01
2012-11-18,61,53,42,36,33,29,63,48,37,30.24,30.09,16,5,16,0.01
2012-11-19,67,54,43,46,42,34,81,64,44,30.10,30.01,13,5,13,0.00
2012-11-20,66,46,35,43,38,33,93,75,41,30.19,30.07,4,0,4,0.00
2012-11-21,73,54,36,45,38,34,96,62,28,30.18,29.91,17,5,17,0.01
2012-11-22,73,60,39,52,43,32,77,54,34,30.24,29.78,16,6,16,0.01
2012-11-23,40,33,20,33,16,8,76,53,28,30.48,30.24,11,2,11,0.00
2012-11-24,47,33,19,24,17,13,82,56,31,30.41,29.85,12,3,12,0.00
2012-11-25,51,36,29,31,26,23,81,67,46,29.96,29.86,5,0,5,0.00
2012-12-5,51,50,48,30,29,29,48,45,42,30.05,29.96,12,5,12,0.00
2012-12-6,51,46,45,41,34,-100,83,66,48,29.98,29.83,12,2,12,0.00
2012-12-7,47,44,38,41,39,36,94,83,76,29.93,29.84,3,0,3,0.04
2012-12-8,45,41,39,37,36,34,94,81,69,29.94,29.85,3,0,3,0.00
2012-12-9,41,35,26,40,28,12,96,77,53,30.01,29.84,7,2,7,0.02
2012-12-11,44,32,25,19,18,16,69,57,35,30.08,30.01,3,0,3,0.00
2012-12-12,30,28,27,18,17,17,65,63,61,30.08,30.06,0,0,0,0.00
2012-12-19,39,37,36,35,34,34,93,90,81,29.59,29.49,7,2,7,0.17
2012-12-20,26,22,19,21,17,14,83,81,78,30.20,30.07,5,1,5,0.01
2012-12-21,20,17,12,15,12,8,85,83,80,30.28,30.20,1,0,1,0.00
2012-12-24,20,20,19,13,12,11,73,73,72,30.15,30.11,4,1,4,0.00
2012-12-25,19,16,12,12,8,5,76,69,55,30.34,30.14,11,3,11,0.00
2012-12-26,20,12,7,12,6,2,81,77,71,30.27,30.14,5,1,5,0.00
2012-12-27,20,16,13,15,12,9,86,84,81,30.15,30.03,0,0,0,0.00
2012-12-28,27,24,22,19,17,15,75,73,71,30.03,29.97,3,1,3,0.00
2012-12-30,42,38,30,23,22,21,68,52,43,30.24,30.05,8,4,8,0.00
2012-12-31,37,28,20,25,21,14,87,75,53,30.17,30.05,4,1,4,0.00
2013-1-1,22,14,6,16,6,0,83,72,48,30.30,30.16,4,0,4,0.07